User: anonymous   Login
Location: Ash Swamp
(41.5170°N, 74.6157°W)
Time: 00:40:42
(UTC+00:00)
Language:

Cosmos 2112 Rocket - Orbit

View from above orbital plane
View from above orbital plane
View from above satellite
View from above satellite

Ground track
Ground track

The orbit data is extracted from the following two-line orbital elements,

1 21015U 90111B   20271.47633977 +.00000101 +00000-0 +43762-4 0  9997
2 21015 074.0487 099.1483 0020857 066.8536 316.6974 14.36011555657893
Epoch (UTC): 27 September 2020 11:25:55
Eccentricity: 0.0020857
inclination: 74.0487°
perigee height: 757 km
apogee height: 786 km
right ascension of ascending node: 99.1483°
argument of perigee: 66.8536°
revolutions per day: 14.36011555
mean anomaly at epoch: 316.6974°
orbit number at epoch: 65789

The dashed part of the orbit path shows where the satellite is in the earth's shadow,  

DLR